Voltar ao catálogo

STARLINK-33741

AtivoComunicaçõesVLEO
NORAD 63365·PAYLOAD·🇺🇸 United States

Lançado Mar 26, 2025 de Vandenberg Space Force Base

Loading…

Próximas Passagens (próximas 24 horas)

TLE

AtualizadoSource: CelesTrak SupGP

Época: Sep 15, 2026, 02:15 UTC

1 63365C 25063C   26258.09423611 -.00033000  00000+0 -97480-3 0  2584
2 63365  53.1572 247.1381 0001373  89.7873  12.3883 15.34412599    19

Acompanhe STARLINK-33741 em tempo real com AllMySat

Download on the App Store